Track STARLINK-1842 now! 10-day predictions STARLINK-1842 is classified as:
1 47132U 20088L 21021.83334491 .00009663 00000-0 11114-3 0 9991 2 47132 53.0552 69.6449 0001681 9.0572 203.4721 15.62777764 9859